TimeCST,TemperatureF,Dew PointF,Humidity,Sea Level PressureIn,VisibilityMPH,Wind Direction,Wind SpeedMPH,Gust SpeedMPH,PrecipitationIn,Events,Conditions,WindDirDegrees,DateUTC
12:15 AM,42.8,37.4,81,30.22,10.0,SSE,6.9,-,N/A,,Clear,160,2013-01-23 06:15:00
12:35 AM,42.8,37.4,81,30.22,10.0,SSE,5.8,-,N/A,,Clear,150,2013-01-23 06:35:00
12:55 AM,41.0,37.4,87,30.22,10.0,SSE,4.6,-,N/A,,Clear,150,2013-01-23 06:55:00
1:15 AM,42.8,37.4,81,30.23,10.0,SSE,5.8,-,N/A,,Clear,150,2013-01-23 07:15:00
1:35 AM,41.0,37.4,87,30.22,10.0,SE,5.8,-,N/A,,Clear,140,2013-01-23 07:35:00
1:55 AM,39.2,35.6,87,30.21,10.0,SSE,6.9,-,N/A,,Clear,150,2013-01-23 07:55:00
2:15 AM,41.0,37.4,87,30.20,10.0,South,9.2,-,N/A,,Clear,170,2013-01-23 08:15:00
2:35 AM,41.0,37.4,87,30.21,10.0,South,6.9,-,N/A,,Clear,170,2013-01-23 08:35:00
2:55 AM,41.0,37.4,87,30.20,10.0,South,9.2,-,N/A,,Clear,170,2013-01-23 08:55:00
3:15 AM,41.0,37.4,87,30.21,10.0,South,6.9,-,N/A,,Clear,180,2013-01-23 09:15:00
3:35 AM,41.0,37.4,87,30.20,10.0,South,6.9,-,N/A,,Clear,170,2013-01-23 09:35:00
3:55 AM,41.0,37.4,87,30.19,10.0,South,8.1,-,N/A,,Clear,170,2013-01-23 09:55:00
4:15 AM,41.0,35.6,81,30.20,10.0,South,5.8,-,N/A,,Clear,170,2013-01-23 10:15:00
4:35 AM,39.2,35.6,87,30.21,10.0,SSE,4.6,-,N/A,,Clear,160,2013-01-23 10:35:00
4:55 AM,37.4,35.6,93,30.21,10.0,SSE,5.8,-,N/A,,Clear,150,2013-01-23 10:55:00
5:15 AM,37.4,35.6,93,30.21,10.0,SE,4.6,-,N/A,,Clear,140,2013-01-23 11:15:00
5:35 AM,37.4,35.6,93,30.20,10.0,SSE,5.8,-,N/A,,Clear,160,2013-01-23 11:35:00
5:55 AM,37.4,35.6,93,30.20,10.0,SSE,4.6,-,N/A,,Clear,160,2013-01-23 11:55:00
6:15 AM,35.6,33.8,93,30.21,10.0,SSE,4.6,-,N/A,,Clear,150,2013-01-23 12:15:00
6:35 AM,37.4,35.6,93,30.21,10.0,SE,3.5,-,N/A,,Clear,140,2013-01-23 12:35:00
6:55 AM,35.6,33.8,93,30.21,10.0,SE,3.5,-,N/A,,Clear,130,2013-01-23 12:55:00
7:15 AM,35.6,35.6,100,30.21,10.0,SE,4.6,-,N/A,,Clear,130,2013-01-23 13:15:00
7:55 AM,33.8,33.8,100,30.21,10.0,SSE,5.8,-,N/A,,Clear,150,2013-01-23 13:55:00
8:15 AM,35.6,35.6,100,30.21,10.0,SSE,5.8,-,N/A,,Clear,160,2013-01-23 14:15:00
8:35 AM,39.2,37.4,93,30.22,10.0,Calm,Calm,-,N/A,,Clear,0,2013-01-23 14:35:00
8:55 AM,41.0,37.4,87,30.22,10.0,SSE,4.6,-,N/A,,Clear,160,2013-01-23 14:55:00
9:15 AM,42.8,37.4,81,30.23,10.0,SSE,4.6,-,N/A,,Clear,160,2013-01-23 15:15:00
9:35 AM,44.6,39.2,81,30.24,10.0,SSW,4.6,-,N/A,,Clear,200,2013-01-23 15:35:00
9:55 AM,46.4,41.0,81,30.24,10.0,South,4.6,-,N/A,,Clear,190,2013-01-23 15:55:00
10:15 AM,46.4,41.0,81,30.24,10.0,South,4.6,-,N/A,,Clear,170,2013-01-23 16:15:00
10:35 AM,50.0,42.8,76,30.24,10.0,SSE,4.6,-,N/A,,Clear,160,2013-01-23 16:35:00
10:55 AM,51.8,42.8,71,30.23,10.0,SW,6.9,-,N/A,,Clear,220,2013-01-23 16:55:00
11:15 AM,53.6,42.8,67,30.23,10.0,SW,4.6,-,N/A,,Clear,220,2013-01-23 17:15:00
11:35 AM,55.4,44.6,67,30.22,10.0,Calm,Calm,-,N/A,,Clear,0,2013-01-23 17:35:00
11:55 AM,57.2,44.6,63,30.20,10.0,Calm,Calm,-,N/A,,Clear,0,2013-01-23 17:55:00
12:15 PM,59.0,46.4,63,30.19,10.0,Calm,Calm,-,N/A,,Clear,0,2013-01-23 18:15:00
12:35 PM,60.8,46.4,59,30.18,10.0,South,3.5,-,N/A,,Clear,170,2013-01-23 18:35:00
12:55 PM,62.6,46.4,55,30.17,10.0,SSE,5.8,-,N/A,,Clear,150,2013-01-23 18:55:00
1:15 PM,64.4,50.0,59,30.16,10.0,South,3.5,-,N/A,,Clear,190,2013-01-23 19:15:00
1:35 PM,66.2,50.0,56,30.14,7.0,South,6.9,-,N/A,,Clear,180,2013-01-23 19:35:00
1:55 PM,68.0,51.8,56,30.13,10.0,South,6.9,-,N/A,,Clear,190,2013-01-23 19:55:00
2:15 PM,68.0,51.8,56,30.13,10.0,SSW,8.1,-,N/A,,Clear,200,2013-01-23 20:15:00
2:35 PM,68.0,51.8,56,30.13,10.0,SSW,9.2,-,N/A,,Clear,210,2013-01-23 20:35:00
2:55 PM,69.8,51.8,53,30.12,10.0,South,8.1,-,N/A,,Clear,180,2013-01-23 20:55:00
3:15 PM,69.8,51.8,53,30.13,10.0,SW,3.5,-,N/A,,Clear,230,2013-01-23 21:15:00
3:35 PM,69.8,51.8,53,30.12,7.0,South,3.5,-,N/A,,Clear,170,2013-01-23 21:35:00
3:55 PM,69.8,51.8,53,30.12,10.0,South,5.8,-,N/A,,Clear,180,2013-01-23 21:55:00
4:15 PM,69.8,51.8,53,30.11,10.0,South,3.5,-,N/A,,Clear,180,2013-01-23 22:15:00
4:35 PM,69.8,51.8,53,30.11,10.0,Calm,Calm,-,N/A,,Clear,0,2013-01-23 22:35:00
4:55 PM,68.0,53.6,60,30.11,10.0,Calm,Calm,-,N/A,,Clear,0,2013-01-23 22:55:00
5:15 PM,66.2,53.6,64,30.12,10.0,Calm,Calm,-,N/A,,Clear,0,2013-01-23 23:15:00
5:35 PM,64.4,51.8,64,30.11,10.0,South,3.5,-,N/A,,Clear,180,2013-01-23 23:35:00
5:55 PM,62.6,51.8,68,30.12,10.0,North,-9999.0,-,N/A,,Clear,0,2013-01-23 23:55:00
6:15 PM,59.0,50.0,72,30.12,10.0,ESE,3.5,-,N/A,,Clear,110,2013-01-24 00:15:00
6:35 PM,60.8,51.8,72,30.13,10.0,SE,3.5,-,N/A,,Clear,140,2013-01-24 00:35:00
6:55 PM,60.8,51.8,72,30.13,10.0,Calm,Calm,-,N/A,,Clear,0,2013-01-24 00:55:00
7:15 PM,59.0,51.8,77,30.14,10.0,Calm,Calm,-,N/A,,Clear,0,2013-01-24 01:15:00
7:35 PM,57.2,50.0,77,30.14,10.0,East,3.5,-,N/A,,Clear,100,2013-01-24 01:35:00
7:55 PM,55.4,50.0,82,30.14,10.0,Calm,Calm,-,N/A,,Clear,0,2013-01-24 01:55:00
8:15 PM,55.4,50.0,82,30.14,10.0,East,3.5,-,N/A,,Clear,90,2013-01-24 02:15:00
8:35 PM,53.6,50.0,88,30.15,10.0,NE,4.6,-,N/A,,Clear,40,2013-01-24 02:35:00
8:55 PM,53.6,50.0,88,30.16,10.0,NNE,6.9,-,N/A,,Clear,30,2013-01-24 02:55:00
9:15 PM,53.6,50.0,88,30.16,10.0,NNE,5.8,-,N/A,,Clear,30,2013-01-24 03:15:00
9:35 PM,51.8,48.2,88,30.16,10.0,NNE,5.8,-,N/A,,Clear,30,2013-01-24 03:35:00
9:55 PM,51.8,48.2,88,30.17,10.0,NE,6.9,-,N/A,,Clear,40,2013-01-24 03:55:00
10:15 PM,51.8,46.4,82,30.17,10.0,NE,4.6,-,N/A,,Clear,40,2013-01-24 04:15:00
10:35 PM,50.0,46.4,87,30.17,10.0,ENE,3.5,-,N/A,,Clear,60,2013-01-24 04:35:00
10:55 PM,50.0,46.4,87,30.18,10.0,NE,5.8,-,N/A,,Clear,40,2013-01-24 04:55:00
11:15 PM,50.0,46.4,87,30.18,10.0,NE,8.1,-,N/A,,Clear,50,2013-01-24 05:15:00
11:35 PM,50.0,46.4,87,30.19,10.0,NE,5.8,-,N/A,,Clear,50,2013-01-24 05:35:00
11:55 PM,50.0,46.4,87,30.19,10.0,NE,6.9,-,N/A,,Clear,50,2013-01-24 05:55:00